Tracking 28518 objects as of 1-Mar-2024
HD Live streaming from Space Station
objects crossing your sky now

IRIDIUM 177

Track IRIDIUM 177 now!
10-day predictions
IRIDIUM 177 is classified as:


NORAD ID: 56727
Int'l Code: 2023-068T
Perigee: 633.8 km
Apogee: 637.7 km
Inclination: 86.2 °
Period: 97.3 minutes
Semi major axis: 7006 km
RCS: Unknown
Launch date: May 20, 2023
Source: United States (US)
Launch site: AIR FORCE WESTERN TEST RANGE (AFWTR)
Your satellite tracking list
Your tracking list is empty




NASA's NSSDC Master Catalog

Two Line Element Set (TLE):
1 56727U 23068T   24060.92738503  .00001863  00000-0  24168-3 0  9997
2 56727  86.2023   6.7466 0002775  92.2009 267.9530 14.80239357 42361
Source of the keplerian elements: AFSPC